sat.trackr.live / text

‹ back to catalog

STARLINK-2389

NORAD 47808 · 2021-018X

PAYLOAD ACTIVE UNKNOWN

§ Identity

Operator
Country
US
Launch date
2021-03-11
Launch site
AFETR
Launch vehicle
Mass (kg)
RCS (m²)

Purposes: comms

External: N2YO · Heavens-Above · Gunter

§ Orbital elements

Epoch: 2026-09-19T21:57:32.873184Z

Period
94.01 min
Inclination
53.1599°
Eccentricity
0.0001057
Mean motion
15.31714916 rev/d
Perigee alt
470.0 km
Apogee alt
471.4 km
Semi-major
6,848.8 km
B*
1.6364e-4
RAAN
58.7559°
Arg perigee
80.7446°
Mean anomaly
279.3675°
Rev number
30,654

§ Raw data

STARLINK-23891 47808U 21018X   26262.91496381  .00004718  00000+0  16364-3 0  99902 47808  53.1599  58.7559 0001057  80.7446 279.3675 15.31714916306547

JSON: /api/v1/satellites/47808 · /tle

For live sub-satellite position, see the globe view (requires WebGL).

§ Visibility from observer

Set your observer location to see the next 7 days of passes ≥ 10°. The values pass through the URL so the page stays shareable.

No JS? Fill the form by hand. The geolocation button needs JavaScript.